Time,TemperatureF,DewpointF,PressureIn,WindDirection,WindDirectionDegrees,WindSpeedMPH,WindSpeedGustMPH,Humidity,HourlyPrecipIn,Conditions,Clouds,dailyrainin,SoftwareType,DateUTC
2013-03-01 00:03:00,42.3,25.9,30.20,NNW,333,1.0,2.0,52,0.00,,,0.00,meteohub,2013-03-01 06:03:00,
2013-03-01 00:09:00,41.9,26.1,30.20,NNW,333,0.0,2.0,53,0.00,,,0.00,meteohub,2013-03-01 06:09:00,
2013-03-01 00:14:00,41.7,25.9,30.20,NNW,333,0.0,2.0,53,0.00,,,0.00,meteohub,2013-03-01 06:14:00,
2013-03-01 00:19:00,41.5,26.1,30.20,NNW,333,0.0,2.0,54,0.00,,,0.00,meteohub,2013-03-01 06:19:00,
2013-03-01 00:24:00,41.4,25.9,30.20,NNW,334,0.0,2.0,54,0.00,,,0.00,meteohub,2013-03-01 06:24:00,
2013-03-01 00:30:00,41.2,26.2,30.20,NNW,334,0.0,2.0,55,0.00,,,0.00,meteohub,2013-03-01 06:30:00,
2013-03-01 00:35:00,41.0,26.1,30.20,NNW,334,0.0,2.0,55,0.00,,,0.00,meteohub,2013-03-01 06:35:00,
2013-03-01 00:40:00,40.8,25.9,30.20,NNW,334,0.0,1.0,55,0.00,,,0.00,meteohub,2013-03-01 06:40:00,
2013-03-01 00:46:00,40.6,26.6,30.20,NNW,334,0.0,1.0,57,0.00,,,0.00,meteohub,2013-03-01 06:46:00,
2013-03-01 00:51:00,40.3,26.2,30.20,NNW,334,0.0,1.0,57,0.00,,,0.00,meteohub,2013-03-01 06:51:00,
2013-03-01 00:56:00,39.7,26.6,30.20,NNW,334,0.0,1.0,59,0.00,,,0.00,meteohub,2013-03-01 06:56:00,
2013-03-01 01:02:00,39.4,27.1,30.20,NNW,334,0.0,0.0,61,0.00,,,0.00,meteohub,2013-03-01 07:02:00,
2013-03-01 01:07:00,39.0,26.8,30.20,NNW,334,0.0,0.0,61,0.00,,,0.00,meteohub,2013-03-01 07:07:00,
2013-03-01 01:12:00,38.8,27.0,30.20,NNW,334,0.0,0.0,62,0.00,,,0.00,meteohub,2013-03-01 07:12:00,
2013-03-01 01:18:00,38.5,27.0,30.20,NNW,334,0.0,0.0,63,0.00,,,0.00,meteohub,2013-03-01 07:18:00,
2013-03-01 01:23:00,38.5,27.0,30.20,NNW,334,0.0,0.0,63,0.00,,,0.00,meteohub,2013-03-01 07:23:00,
2013-03-01 01:28:00,38.1,26.6,30.20,NNW,334,0.0,0.0,63,0.00,,,0.00,meteohub,2013-03-01 07:28:00,
2013-03-01 01:34:00,38.1,26.6,30.20,NNW,334,0.0,0.0,63,0.00,,,0.00,meteohub,2013-03-01 07:34:00,
2013-03-01 01:39:00,38.3,26.8,30.20,NNW,334,0.0,1.0,63,0.00,,,0.00,meteohub,2013-03-01 07:39:00,
2013-03-01 01:44:00,38.1,26.6,30.20,NNW,334,0.0,1.0,63,0.00,,,0.00,meteohub,2013-03-01 07:44:00,
2013-03-01 01:49:00,37.8,26.6,30.20,NNW,334,0.0,1.0,64,0.00,,,0.00,meteohub,2013-03-01 07:49:00,
2013-03-01 01:55:00,37.6,27.0,30.20,NNW,334,0.0,1.0,65,0.00,,,0.00,meteohub,2013-03-01 07:55:00,
2013-03-01 02:00:00,37.4,26.8,30.20,NNW,334,0.0,1.0,65,0.00,,,0.00,meteohub,2013-03-01 08:00:00,
2013-03-01 02:05:00,37.2,26.6,30.19,NNW,334,0.0,1.0,65,0.00,,,0.00,meteohub,2013-03-01 08:05:00,
2013-03-01 02:11:00,37.0,26.8,30.19,NNW,334,0.0,1.0,66,0.00,,,0.00,meteohub,2013-03-01 08:11:00,
2013-03-01 02:16:00,37.0,26.8,30.19,NNW,334,0.0,1.0,66,0.00,,,0.00,meteohub,2013-03-01 08:16:00,
2013-03-01 02:21:00,36.9,27.0,30.19,NNW,334,0.0,1.0,67,0.00,,,0.00,meteohub,2013-03-01 08:21:00,
2013-03-01 02:27:00,36.9,27.0,30.19,NNW,334,0.0,1.0,67,0.00,,,0.00,meteohub,2013-03-01 08:27:00,
2013-03-01 02:32:00,36.7,26.8,30.19,NNW,334,0.0,0.0,67,0.00,,,0.00,meteohub,2013-03-01 08:32:00,
2013-03-01 02:37:00,36.5,27.0,30.19,NNW,334,0.0,0.0,68,0.00,,,0.00,meteohub,2013-03-01 08:37:00,
2013-03-01 02:42:00,36.5,27.0,30.19,NNW,334,0.0,0.0,68,0.00,,,0.00,meteohub,2013-03-01 08:42:00,
2013-03-01 02:47:00,36.7,27.1,30.19,NNW,334,0.0,0.0,68,0.00,,,0.00,meteohub,2013-03-01 08:47:00,
2013-03-01 02:52:00,36.7,27.5,30.19,NNW,334,0.0,0.0,69,0.00,,,0.00,meteohub,2013-03-01 08:52:00,
2013-03-01 02:57:00,36.5,27.3,30.19,NNW,334,0.0,0.0,69,0.00,,,0.00,meteohub,2013-03-01 08:57:00,
2013-03-01 03:02:00,36.3,27.5,30.19,NNW,334,0.0,0.0,70,0.00,,,0.00,meteohub,2013-03-01 09:02:00,
2013-03-01 03:07:00,36.1,27.3,30.19,NNW,334,0.0,1.0,70,0.00,,,0.00,meteohub,2013-03-01 09:07:00,
2013-03-01 03:12:00,36.1,27.7,30.19,NNW,334,0.0,0.0,71,0.00,,,0.00,meteohub,2013-03-01 09:12:00,
2013-03-01 03:18:00,36.1,27.7,30.19,NNW,334,0.0,1.0,71,0.00,,,0.00,meteohub,2013-03-01 09:18:00,
2013-03-01 03:23:00,36.0,27.5,30.19,NNW,334,0.0,1.0,71,0.00,,,0.00,meteohub,2013-03-01 09:23:00,
2013-03-01 03:28:00,36.0,27.9,30.19,NNW,334,0.0,1.0,72,0.00,,,0.00,meteohub,2013-03-01 09:28:00,
2013-03-01 03:33:00,36.0,27.9,30.19,NNW,334,0.0,1.0,72,0.00,,,0.00,meteohub,2013-03-01 09:33:00,
2013-03-01 03:39:00,35.8,27.7,30.19,NNW,334,0.0,1.0,72,0.00,,,0.00,meteohub,2013-03-01 09:39:00,
2013-03-01 03:44:00,35.6,27.9,30.20,NNW,334,0.0,0.0,73,0.00,,,0.00,meteohub,2013-03-01 09:44:00,
2013-03-01 03:49:00,35.6,27.9,30.19,NNW,334,0.0,0.0,73,0.00,,,0.00,meteohub,2013-03-01 09:49:00,
2013-03-01 03:54:00,35.2,27.9,30.19,NNW,334,0.0,0.0,74,0.00,,,0.00,meteohub,2013-03-01 09:54:00,
2013-03-01 03:59:00,35.4,28.0,30.20,NNW,334,0.0,0.0,74,0.00,,,0.00,meteohub,2013-03-01 09:59:00,
2013-03-01 04:05:00,35.2,28.0,30.20,NNW,334,0.0,0.0,75,0.00,,,0.00,meteohub,2013-03-01 10:05:00,
2013-03-01 04:10:00,35.1,28.2,30.20,NNW,334,0.0,0.0,76,0.00,,,0.00,meteohub,2013-03-01 10:10:00,
2013-03-01 04:15:00,35.1,27.9,30.20,NNW,334,0.0,0.0,75,0.00,,,0.00,meteohub,2013-03-01 10:15:00,
2013-03-01 04:20:00,34.9,28.0,30.20,NNW,334,0.0,0.0,76,0.00,,,0.00,meteohub,2013-03-01 10:20:00,
2013-03-01 04:26:00,34.5,28.0,30.20,NNW,334,0.0,0.0,77,0.00,,,0.00,meteohub,2013-03-01 10:26:00,
2013-03-01 04:31:00,34.2,28.0,30.20,NNW,334,0.0,0.0,78,0.00,,,0.00,meteohub,2013-03-01 10:31:00,
2013-03-01 04:36:00,33.8,28.2,30.20,NNW,334,0.0,0.0,80,0.00,,,0.00,meteohub,2013-03-01 10:36:00,
2013-03-01 04:41:00,33.6,28.4,30.20,NNW,334,0.0,0.0,81,0.00,,,0.00,meteohub,2013-03-01 10:41:00,
2013-03-01 04:46:00,33.4,28.2,30.20,NNW,334,0.0,0.0,81,0.00,,,0.00,meteohub,2013-03-01 10:46:00,
2013-03-01 04:52:00,33.4,28.2,30.20,NNW,334,0.0,0.0,81,0.00,,,0.00,meteohub,2013-03-01 10:52:00,
2013-03-01 04:57:00,33.4,28.2,30.20,NNW,334,0.0,0.0,81,0.00,,,0.00,meteohub,2013-03-01 10:57:00,
2013-03-01 05:02:00,33.3,28.4,30.20,NNW,334,0.0,0.0,82,0.00,,,0.00,meteohub,2013-03-01 11:02:00,
2013-03-01 05:07:00,33.3,28.4,30.20,NNW,334,0.0,0.0,82,0.00,,,0.00,meteohub,2013-03-01 11:07:00,
2013-03-01 05:12:00,33.1,28.2,30.20,NNW,334,0.0,0.0,82,0.00,,,0.00,meteohub,2013-03-01 11:12:00,
2013-03-01 05:17:00,32.9,28.2,30.20,NNW,334,0.0,0.0,83,0.00,,,0.00,meteohub,2013-03-01 11:17:00,
2013-03-01 05:22:00,32.7,28.4,30.21,NNW,334,0.0,0.0,84,0.00,,,0.00,meteohub,2013-03-01 11:22:00,
2013-03-01 05:27:00,32.5,28.6,30.22,NNW,334,0.0,0.0,85,0.00,,,0.00,meteohub,2013-03-01 11:27:00,
2013-03-01 05:32:00,32.4,28.6,30.22,NNW,334,0.0,0.0,86,0.00,,,0.00,meteohub,2013-03-01 11:32:00,
2013-03-01 05:37:00,32.2,28.8,30.22,NNW,334,0.0,0.0,87,0.00,,,0.00,meteohub,2013-03-01 11:37:00,
2013-03-01 05:42:00,32.0,28.6,30.22,NNW,334,0.0,0.0,87,0.00,,,0.00,meteohub,2013-03-01 11:42:00,
2013-03-01 05:48:00,32.4,28.6,30.22,NNW,334,0.0,0.0,86,0.00,,,0.00,meteohub,2013-03-01 11:48:00,
2013-03-01 05:53:00,32.5,28.2,30.23,NNW,334,0.0,0.0,84,0.00,,,0.00,meteohub,2013-03-01 11:53:00,
2013-03-01 05:58:00,32.7,27.9,30.23,NNW,334,0.0,0.0,82,0.00,,,0.00,meteohub,2013-03-01 11:58:00,
2013-03-01 06:04:00,32.9,28.0,30.23,NNW,334,0.0,0.0,82,0.00,,,0.00,meteohub,2013-03-01 12:04:00,
2013-03-01 06:09:00,33.4,28.2,30.23,NNW,334,0.0,0.0,81,0.00,,,0.00,meteohub,2013-03-01 12:09:00,
2013-03-01 06:14:00,33.4,27.9,30.23,NNW,334,0.0,0.0,80,0.00,,,0.00,meteohub,2013-03-01 12:14:00,
2013-03-01 06:19:00,33.4,27.9,30.22,NNW,334,0.0,2.0,80,0.00,,,0.00,meteohub,2013-03-01 12:19:00,
2013-03-01 06:25:00,33.6,28.0,30.22,NNW,334,0.0,2.0,80,0.00,,,0.00,meteohub,2013-03-01 12:25:00,
2013-03-01 06:30:00,33.6,28.0,30.22,NNW,334,0.0,2.0,80,0.00,,,0.00,meteohub,2013-03-01 12:30:00,
2013-03-01 06:35:00,33.4,27.9,30.22,NNW,334,0.0,2.0,80,0.00,,,0.00,meteohub,2013-03-01 12:35:00,
2013-03-01 06:40:00,33.4,27.9,30.22,NNW,334,0.0,0.0,80,0.00,,,0.00,meteohub,2013-03-01 12:40:00,
2013-03-01 06:46:00,33.3,28.0,30.22,NNW,334,0.0,0.0,81,0.00,,,0.00,meteohub,2013-03-01 12:46:00,
2013-03-01 06:51:00,33.1,27.9,30.22,NNW,334,0.0,0.0,81,0.00,,,0.00,meteohub,2013-03-01 12:51:00,
2013-03-01 06:56:00,32.7,27.9,30.23,NNW,334,0.0,0.0,82,0.00,,,0.00,meteohub,2013-03-01 12:56:00,
2013-03-01 07:01:00,32.4,27.9,30.23,NNW,334,0.0,0.0,83,0.00,,,0.00,meteohub,2013-03-01 13:01:00,
2013-03-01 07:07:00,32.0,27.5,30.23,NNW,334,0.0,0.0,83,0.00,,,0.00,meteohub,2013-03-01 13:07:00,
2013-03-01 07:12:00,31.8,27.5,30.23,NNW,334,0.0,0.0,84,0.00,,,0.00,meteohub,2013-03-01 13:12:00,
2013-03-01 07:17:00,32.2,27.9,30.23,NNW,334,0.0,0.0,84,0.00,,,0.00,meteohub,2013-03-01 13:17:00,
2013-03-01 07:22:00,32.4,28.0,30.23,NNW,334,0.0,0.0,84,0.00,,,0.00,meteohub,2013-03-01 13:22:00,
2013-03-01 07:28:00,32.7,28.2,30.24,NNW,334,0.0,0.0,83,0.00,,,0.00,meteohub,2013-03-01 13:28:00,
2013-03-01 07:33:00,33.4,28.6,30.24,NNW,334,0.0,0.0,82,0.00,,,0.00,meteohub,2013-03-01 13:33:00,
2013-03-01 07:38:00,34.0,29.1,30.24,NNW,334,0.0,0.0,82,0.00,,,0.00,meteohub,2013-03-01 13:38:00,
2013-03-01 07:44:00,34.5,29.3,30.24,NNW,334,0.0,0.0,81,0.00,,,0.00,meteohub,2013-03-01 13:44:00,
2013-03-01 07:49:00,35.1,29.5,30.25,NNW,330,0.0,2.0,80,0.00,,,0.00,meteohub,2013-03-01 13:49:00,
2013-03-01 07:54:00,35.8,29.8,30.25,NNW,330,0.0,2.0,79,0.00,,,0.00,meteohub,2013-03-01 13:54:00,
2013-03-01 07:59:00,36.7,30.7,30.25,North,355,0.0,3.0,79,0.00,,,0.00,meteohub,2013-03-01 13:59:00,
2013-03-01 08:05:00,37.4,30.9,30.25,North,0,1.0,3.0,77,0.00,,,0.00,meteohub,2013-03-01 14:05:00,
2013-03-01 08:10:00,38.1,31.3,30.25,North,5,3.0,3.0,76,0.00,,,0.00,meteohub,2013-03-01 14:10:00,
2013-03-01 08:15:00,38.3,31.1,30.26,North,0,1.0,5.0,75,0.00,,,0.00,meteohub,2013-03-01 14:15:00,
2013-03-01 08:20:00,38.7,31.1,30.26,North,355,0.0,5.0,74,0.00,,,0.00,meteohub,2013-03-01 14:20:00,
2013-03-01 08:25:00,38.7,31.1,30.27,North,5,0.0,4.0,74,0.00,,,0.00,meteohub,2013-03-01 14:25:00,
2013-03-01 08:31:00,38.7,30.7,30.27,NE,34,1.0,4.0,73,0.00,,,0.00,meteohub,2013-03-01 14:31:00,
2013-03-01 08:36:00,38.8,30.9,30.27,NW,319,2.0,4.0,73,0.00,,,0.00,meteohub,2013-03-01 14:36:00,
2013-03-01 08:41:00,39.4,30.7,30.27,NNW,329,0.0,5.0,71,0.00,,,0.00,meteohub,2013-03-01 14:41:00,
2013-03-01 08:46:00,39.6,30.9,30.27,NE,53,1.0,6.0,71,0.00,,,0.00,meteohub,2013-03-01 14:46:00,
2013-03-01 08:51:00,39.9,31.3,30.27,North,5,4.0,6.0,71,0.00,,,0.00,meteohub,2013-03-01 14:51:00,
2013-03-01 08:56:00,40.3,30.9,30.27,NE,48,3.0,6.0,69,0.00,,,0.00,meteohub,2013-03-01 14:56:00,
2013-03-01 09:02:00,40.3,30.9,30.28,NNE,24,3.0,6.0,69,0.00,,,0.00,meteohub,2013-03-01 15:02:00,
2013-03-01 09:07:00,40.3,30.9,30.28,NNE,24,1.0,5.0,69,0.00,,,0.00,meteohub,2013-03-01 15:07:00,
2013-03-01 09:12:00,40.1,30.4,30.28,NNE,24,0.0,5.0,68,0.00,,,0.00,meteohub,2013-03-01 15:12:00,
2013-03-01 09:17:00,40.1,30.4,30.28,NE,45,4.0,5.0,68,0.00,,,0.00,meteohub,2013-03-01 15:17:00,
2013-03-01 09:22:00,40.5,31.5,30.28,NNW,332,0.0,7.0,70,0.00,,,0.00,meteohub,2013-03-01 15:22:00,
2013-03-01 09:27:00,40.6,31.3,30.28,North,11,0.0,7.0,69,0.00,,,0.00,meteohub,2013-03-01 15:27:00,
2013-03-01 09:32:00,40.8,31.5,30.28,NW,325,2.0,7.0,69,0.00,,,0.00,meteohub,2013-03-01 15:32:00,
2013-03-01 09:37:00,41.2,31.1,30.28,North,5,2.0,7.0,67,0.00,,,0.00,meteohub,2013-03-01 15:37:00,
2013-03-01 09:42:00,41.2,31.1,30.28,NW,304,0.0,7.0,67,0.00,,,0.00,meteohub,2013-03-01 15:42:00,
2013-03-01 09:47:00,41.7,31.3,30.28,NNE,22,2.0,8.0,66,0.00,,,0.00,meteohub,2013-03-01 15:47:00,
2013-03-01 09:53:00,42.1,31.1,30.28,NE,41,1.0,8.0,65,0.00,,,0.00,meteohub,2013-03-01 15:53:00,
2013-03-01 09:58:00,42.1,31.5,30.28,NW,319,1.0,8.0,66,0.00,,,0.00,meteohub,2013-03-01 15:58:00,
2013-03-01 10:03:00,42.3,31.3,30.28,NNW,336,2.0,7.0,65,0.00,,,0.00,meteohub,2013-03-01 16:03:00,
2013-03-01 10:08:00,42.4,31.1,30.28,NW,317,3.0,7.0,64,0.00,,,0.00,meteohub,2013-03-01 16:08:00,
2013-03-01 10:13:00,43.2,31.8,30.28,WNW,299,6.0,6.0,64,0.00,,,0.00,meteohub,2013-03-01 16:13:00,
2013-03-01 10:19:00,43.2,31.8,30.28,WNW,290,6.0,7.0,64,0.00,,,0.00,meteohub,2013-03-01 16:19:00,
2013-03-01 10:24:00,43.9,31.6,30.28,NNW,347,3.0,8.0,62,0.00,,,0.00,meteohub,2013-03-01 16:24:00,
2013-03-01 10:29:00,44.1,30.7,30.28,NNE,14,0.0,8.0,59,0.00,,,0.00,meteohub,2013-03-01 16:29:00,
2013-03-01 10:34:00,44.8,31.3,30.28,NW,321,1.0,8.0,59,0.00,,,0.00,meteohub,2013-03-01 16:34:00,
2013-03-01 10:40:00,45.1,31.3,30.27,NNE,28,4.0,8.0,58,0.00,,,0.00,meteohub,2013-03-01 16:40:00,
2013-03-01 10:45:00,45.7,30.9,30.27,NNW,331,2.0,8.0,56,0.00,,,0.00,meteohub,2013-03-01 16:45:00,
2013-03-01 10:50:00,45.1,30.4,30.27,NW,310,0.0,10.0,56,0.00,,,0.00,meteohub,2013-03-01 16:50:00,
2013-03-01 10:55:00,46.8,31.8,30.27,NW,307,5.0,10.0,56,0.00,,,0.00,meteohub,2013-03-01 16:55:00,
2013-03-01 11:00:00,47.1,31.8,30.27,NW,309,4.0,10.0,55,0.00,,,0.00,meteohub,2013-03-01 17:00:00,
2013-03-01 11:05:00,46.8,30.6,30.27,NNW,340,3.0,10.0,53,0.00,,,0.00,meteohub,2013-03-01 17:05:00,
2013-03-01 11:11:00,47.5,31.3,30.27,NNE,16,0.0,9.0,53,0.00,,,0.00,meteohub,2013-03-01 17:11:00,
2013-03-01 11:16:00,47.8,30.6,30.27,North,11,0.0,9.0,51,0.00,,,0.00,meteohub,2013-03-01 17:16:00,
2013-03-01 11:21:00,48.4,32.9,30.27,NNE,13,2.0,9.0,55,0.00,,,0.00,meteohub,2013-03-01 17:21:00,
2013-03-01 11:26:00,48.6,30.7,30.26,NNW,333,0.0,9.0,50,0.00,,,0.00,meteohub,2013-03-01 17:26:00,
2013-03-01 11:32:00,50.0,31.1,30.26,NNW,328,4.0,9.0,48,0.00,,,0.00,meteohub,2013-03-01 17:32:00,
2013-03-01 11:37:00,50.0,32.5,30.26,NNE,30,2.0,9.0,51,0.00,,,0.00,meteohub,2013-03-01 17:37:00,
2013-03-01 11:42:00,50.0,31.1,30.26,WNW,294,7.0,10.0,48,0.00,,,0.00,meteohub,2013-03-01 17:42:00,
2013-03-01 11:47:00,51.6,32.5,30.26,NW,315,1.0,13.0,48,0.00,,,0.00,meteohub,2013-03-01 17:47:00,
2013-03-01 11:52:00,51.1,31.1,30.26,NW,309,6.0,13.0,46,0.00,,,0.00,meteohub,2013-03-01 17:52:00,
2013-03-01 11:57:00,50.9,32.4,30.25,NW,323,0.0,13.0,49,0.00,,,0.00,meteohub,2013-03-01 17:57:00,
2013-03-01 12:02:00,51.6,29.8,30.25,NNE,27,6.0,13.0,43,0.00,,,0.00,meteohub,2013-03-01 18:02:00,
2013-03-01 12:07:00,50.7,29.7,30.25,North,5,4.0,13.0,44,0.00,,,0.00,meteohub,2013-03-01 18:07:00,
2013-03-01 12:12:00,50.2,29.1,30.24,NNW,329,4.0,8.0,44,0.00,,,0.00,meteohub,2013-03-01 18:12:00,
2013-03-01 12:17:00,49.8,28.8,30.24,NNW,344,2.0,8.0,44,0.00,,,0.00,meteohub,2013-03-01 18:17:00,
2013-03-01 12:22:00,50.5,30.0,30.24,NNW,341,1.0,8.0,45,0.00,,,0.00,meteohub,2013-03-01 18:22:00,
2013-03-01 12:27:00,52.2,31.5,30.24,North,9,1.0,8.0,45,0.00,,,0.00,meteohub,2013-03-01 18:27:00,
2013-03-01 12:32:00,52.2,30.4,30.23,NNW,340,3.0,8.0,43,0.00,,,0.00,meteohub,2013-03-01 18:32:00,
2013-03-01 12:37:00,51.4,30.2,30.23,NNE,19,4.0,8.0,44,0.00,,,0.00,meteohub,2013-03-01 18:37:00,
2013-03-01 12:42:00,51.3,30.0,30.23,NW,322,10.0,10.0,44,0.00,,,0.00,meteohub,2013-03-01 18:42:00,
2013-03-01 12:47:00,51.8,31.1,30.23,NW,323,7.0,10.0,45,0.00,,,0.00,meteohub,2013-03-01 18:47:00,
2013-03-01 12:52:00,51.4,30.2,30.23,NNW,348,2.0,10.0,44,0.00,,,0.00,meteohub,2013-03-01 18:52:00,
2013-03-01 12:57:00,51.3,30.6,30.23,North,5,5.0,10.0,45,0.00,,,0.00,meteohub,2013-03-01 18:57:00,
2013-03-01 13:03:00,50.5,30.6,30.23,NW,315,0.0,10.0,46,0.00,,,0.00,meteohub,2013-03-01 19:03:00,
2013-03-01 13:08:00,51.6,31.5,30.22,NNE,17,4.0,13.0,46,0.00,,,0.00,meteohub,2013-03-01 19:08:00,
2013-03-01 13:13:00,51.4,31.3,30.22,NNE,14,6.0,13.0,46,0.00,,,0.00,meteohub,2013-03-01 19:13:00,
2013-03-01 13:18:00,51.6,31.5,30.22,NE,43,2.0,13.0,46,0.00,,,0.00,meteohub,2013-03-01 19:18:00,
2013-03-01 13:24:00,50.7,30.7,30.22,NNE,19,3.0,13.0,46,0.00,,,0.00,meteohub,2013-03-01 19:24:00,
2013-03-01 13:29:00,50.5,32.0,30.22,NNE,17,4.0,9.0,49,0.00,,,0.00,meteohub,2013-03-01 19:29:00,
2013-03-01 13:34:00,50.5,32.5,30.21,NNE,21,6.0,9.0,50,0.00,,,0.00,meteohub,2013-03-01 19:34:00,
2013-03-01 13:39:00,51.4,34.0,30.21,NNW,329,8.0,10.0,51,0.00,,,0.00,meteohub,2013-03-01 19:39:00,
2013-03-01 13:44:00,52.3,33.3,30.21,NNW,331,7.0,12.0,48,0.00,,,0.00,meteohub,2013-03-01 19:44:00,
2013-03-01 13:50:00,51.6,32.0,30.20,NNE,16,4.0,12.0,47,0.00,,,0.00,meteohub,2013-03-01 19:50:00,
2013-03-01 13:55:00,52.7,33.6,30.20,WNW,289,5.0,12.0,48,0.00,,,0.00,meteohub,2013-03-01 19:55:00,
2013-03-01 14:00:00,52.9,33.3,30.19,North,351,3.0,12.0,47,0.00,,,0.00,meteohub,2013-03-01 20:00:00,
2013-03-01 14:05:00,54.0,33.1,30.19,North,0,2.0,12.0,45,0.00,,,0.00,meteohub,2013-03-01 20:05:00,
2013-03-01 14:10:00,54.3,32.4,30.18,NW,323,9.0,9.0,43,0.00,,,0.00,meteohub,2013-03-01 20:10:00,
2013-03-01 14:15:00,54.7,32.5,30.18,NNE,15,3.0,9.0,43,0.00,,,0.00,meteohub,2013-03-01 20:15:00,
2013-03-01 14:21:00,54.7,33.8,30.18,NNW,331,9.0,10.0,45,0.00,,,0.00,meteohub,2013-03-01 20:21:00,
2013-03-01 14:26:00,54.1,31.5,30.18,NNE,15,4.0,12.0,42,0.00,,,0.00,meteohub,2013-03-01 20:26:00,
2013-03-01 14:31:00,54.0,32.5,30.18,North,10,4.0,12.0,44,0.00,,,0.00,meteohub,2013-03-01 20:31:00,
2013-03-01 14:36:00,54.1,32.2,30.17,NW,310,4.0,12.0,43,0.00,,,0.00,meteohub,2013-03-01 20:36:00,
2013-03-01 14:41:00,54.7,32.0,30.18,NNE,24,4.0,11.0,42,0.00,,,0.00,meteohub,2013-03-01 20:41:00,
2013-03-01 14:47:00,54.7,33.3,30.18,NNW,328,5.0,12.0,44,0.00,,,0.00,meteohub,2013-03-01 20:47:00,
2013-03-01 14:52:00,55.8,33.6,30.17,WNW,284,10.0,12.0,43,0.00,,,0.00,meteohub,2013-03-01 20:52:00,
2013-03-01 14:57:00,55.8,33.6,30.18,NNW,340,6.0,12.0,43,0.00,,,0.00,meteohub,2013-03-01 20:57:00,
2013-03-01 15:03:00,55.0,32.4,30.18,NNE,26,1.0,12.0,42,0.00,,,0.00,meteohub,2013-03-01 21:03:00,
2013-03-01 15:08:00,54.9,32.7,30.17,NNE,15,3.0,13.0,43,0.00,,,0.00,meteohub,2013-03-01 21:08:00,
2013-03-01 15:13:00,55.0,32.4,30.17,NNW,333,10.0,10.0,42,0.00,,,0.00,meteohub,2013-03-01 21:13:00,
2013-03-01 15:18:00,55.2,32.0,30.17,North,9,3.0,14.0,41,0.00,,,0.00,meteohub,2013-03-01 21:18:00,
2013-03-01 15:23:00,55.0,32.4,30.17,NNW,329,5.0,14.0,42,0.00,,,0.00,meteohub,2013-03-01 21:23:00,
2013-03-01 15:29:00,54.5,31.3,30.17,NNW,328,6.0,14.0,41,0.00,,,0.00,meteohub,2013-03-01 21:29:00,
2013-03-01 15:34:00,54.7,33.8,30.17,North,5,3.0,14.0,45,0.00,,,0.00,meteohub,2013-03-01 21:34:00,
2013-03-01 15:39:00,54.9,32.7,30.17,North,355,1.0,15.0,43,0.00,,,0.00,meteohub,2013-03-01 21:39:00,
2013-03-01 15:44:00,54.7,32.0,30.17,North,10,3.0,13.0,42,0.00,,,0.00,meteohub,2013-03-01 21:44:00,
2013-03-01 15:50:00,54.7,31.5,30.17,NNW,334,5.0,11.0,41,0.00,,,0.00,meteohub,2013-03-01 21:50:00,
2013-03-01 15:55:00,55.0,31.8,30.17,NNW,333,4.0,11.0,41,0.00,,,0.00,meteohub,2013-03-01 21:55:00,
2013-03-01 16:00:00,55.0,31.8,30.17,NNW,340,5.0,11.0,41,0.00,,,0.00,meteohub,2013-03-01 22:00:00,
2013-03-01 16:05:00,54.5,31.3,30.17,NNE,21,4.0,11.0,41,0.00,,,0.00,meteohub,2013-03-01 22:05:00,
2013-03-01 16:11:00,54.7,32.0,30.18,NNW,327,9.0,14.0,42,0.00,,,0.00,meteohub,2013-03-01 22:11:00,
2013-03-01 16:16:00,54.7,32.0,30.18,NNE,30,3.0,14.0,42,0.00,,,0.00,meteohub,2013-03-01 22:16:00,
2013-03-01 16:21:00,54.7,31.5,30.18,NNW,342,6.0,12.0,41,0.00,,,0.00,meteohub,2013-03-01 22:21:00,
2013-03-01 16:26:00,54.1,30.4,30.17,NNE,17,4.0,12.0,40,0.00,,,0.00,meteohub,2013-03-01 22:26:00,
2013-03-01 16:31:00,54.0,31.5,30.18,NNW,329,8.0,12.0,42,0.00,,,0.00,meteohub,2013-03-01 22:31:00,
2013-03-01 16:37:00,54.1,30.9,30.17,North,350,6.0,12.0,41,0.00,,,0.00,meteohub,2013-03-01 22:37:00,
2013-03-01 16:42:00,54.5,31.3,30.17,NW,322,1.0,15.0,41,0.00,,,0.00,meteohub,2013-03-01 22:42:00,
2013-03-01 16:47:00,54.7,30.9,30.17,NNE,15,2.0,14.0,40,0.00,,,0.00,meteohub,2013-03-01 22:47:00,
2013-03-01 16:52:00,54.5,30.7,30.18,NNW,348,3.0,14.0,40,0.00,,,0.00,meteohub,2013-03-01 22:52:00,
2013-03-01 16:57:00,54.7,30.9,30.17,NNW,348,4.0,12.0,40,0.00,,,0.00,meteohub,2013-03-01 22:57:00,
2013-03-01 17:02:00,54.3,31.1,30.17,NW,325,4.0,12.0,41,0.00,,,0.00,meteohub,2013-03-01 23:02:00,
2013-03-01 17:07:00,54.3,31.1,30.17,NW,315,8.0,11.0,41,0.00,,,0.00,meteohub,2013-03-01 23:07:00,
2013-03-01 17:13:00,54.1,30.9,30.17,North,9,2.0,14.0,41,0.00,,,0.00,meteohub,2013-03-01 23:13:00,
2013-03-01 17:18:00,53.6,31.6,30.17,NW,317,8.0,14.0,43,0.00,,,0.00,meteohub,2013-03-01 23:18:00,
2013-03-01 17:23:00,53.4,31.5,30.18,North,5,3.0,14.0,43,0.00,,,0.00,meteohub,2013-03-01 23:23:00,
2013-03-01 17:28:00,53.2,33.1,30.18,NW,313,7.0,9.0,46,0.00,,,0.00,meteohub,2013-03-01 23:28:00,
2013-03-01 17:33:00,52.5,33.4,30.18,NNE,30,3.0,9.0,48,0.00,,,0.00,meteohub,2013-03-01 23:33:00,
2013-03-01 17:39:00,52.2,33.6,30.18,NE,34,6.0,9.0,49,0.00,,,0.00,meteohub,2013-03-01 23:39:00,
2013-03-01 17:44:00,51.8,34.2,30.18,NNE,24,5.0,9.0,51,0.00,,,0.00,meteohub,2013-03-01 23:44:00,
2013-03-01 17:49:00,51.6,34.2,30.18,NNE,21,5.0,8.0,51,0.00,,,0.00,meteohub,2013-03-01 23:49:00,
2013-03-01 17:54:00,51.6,33.6,30.18,North,11,7.0,10.0,50,0.00,,,0.00,meteohub,2013-03-01 23:54:00,
2013-03-01 17:59:00,51.3,33.3,30.19,NE,37,5.0,10.0,50,0.00,,,0.00,meteohub,2013-03-01 23:59:00,
2013-03-01 18:05:00,50.5,33.1,30.19,North,11,6.0,11.0,51,0.00,,,0.00,meteohub,2013-03-02 00:05:00,
2013-03-01 18:10:00,50.2,33.3,30.19,NNE,17,4.0,11.0,52,0.00,,,0.00,meteohub,2013-03-02 00:10:00,
2013-03-01 18:15:00,50.0,33.6,30.19,NNE,12,3.0,11.0,53,0.00,,,0.00,meteohub,2013-03-02 00:15:00,
2013-03-01 18:20:00,50.0,33.6,30.19,North,9,3.0,11.0,53,0.00,,,0.00,meteohub,2013-03-02 00:20:00,
2013-03-01 18:26:00,50.2,33.6,30.19,North,10,5.0,11.0,53,0.00,,,0.00,meteohub,2013-03-02 00:26:00,
2013-03-01 18:31:00,50.2,33.6,30.20,NW,317,3.0,9.0,53,0.00,,,0.00,meteohub,2013-03-02 00:31:00,
2013-03-01 18:36:00,50.2,33.3,30.20,NE,36,2.0,9.0,52,0.00,,,0.00,meteohub,2013-03-02 00:36:00,
2013-03-01 18:41:00,50.0,32.2,30.20,North,350,3.0,9.0,50,0.00,,,0.00,meteohub,2013-03-02 00:41:00,
2013-03-01 18:47:00,49.8,32.0,30.20,NNE,27,7.0,9.0,50,0.00,,,0.00,meteohub,2013-03-02 00:47:00,
2013-03-01 18:52:00,49.6,32.2,30.20,NW,317,8.0,13.0,51,0.00,,,0.00,meteohub,2013-03-02 00:52:00,
2013-03-01 18:57:00,49.3,32.0,30.21,North,355,4.0,13.0,51,0.00,,,0.00,meteohub,2013-03-02 00:57:00,
2013-03-01 19:02:00,48.9,32.0,30.21,NNW,335,2.0,10.0,52,0.00,,,0.00,meteohub,2013-03-02 01:02:00,
2013-03-01 19:07:00,48.7,31.8,30.21,NW,314,1.0,10.0,52,0.00,,,0.00,meteohub,2013-03-02 01:07:00,
2013-03-01 19:12:00,48.6,32.2,30.21,NNE,28,2.0,9.0,53,0.00,,,0.00,meteohub,2013-03-02 01:12:00,
2013-03-01 19:18:00,48.4,32.0,30.21,NNW,347,2.0,7.0,53,0.00,,,0.00,meteohub,2013-03-02 01:18:00,
2013-03-01 19:23:00,48.0,31.6,30.21,NW,323,2.0,7.0,53,0.00,,,0.00,meteohub,2013-03-02 01:23:00,
2013-03-01 19:28:00,47.8,31.5,30.21,NNW,335,1.0,7.0,53,0.00,,,0.00,meteohub,2013-03-02 01:28:00,
2013-03-01 19:33:00,47.7,31.8,30.21,North,0,2.0,6.0,54,0.00,,,0.00,meteohub,2013-03-02 01:33:00,
2013-03-01 19:38:00,47.5,32.2,30.21,NNW,332,4.0,6.0,55,0.00,,,0.00,meteohub,2013-03-02 01:38:00,
2013-03-01 19:44:00,47.3,32.0,30.22,NW,319,3.0,7.0,55,0.00,,,0.00,meteohub,2013-03-02 01:44:00,
2013-03-01 19:49:00,46.9,32.0,30.22,NNW,344,0.0,7.0,56,0.00,,,0.00,meteohub,2013-03-02 01:49:00,
2013-03-01 19:54:00,46.9,32.0,30.22,North,355,5.0,7.0,56,0.00,,,0.00,meteohub,2013-03-02 01:54:00,
2013-03-01 19:59:00,46.9,32.0,30.22,NNE,15,4.0,7.0,56,0.00,,,0.00,meteohub,2013-03-02 01:59:00,
2013-03-01 20:04:00,46.9,32.0,30.22,North,355,1.0,8.0,56,0.00,,,0.00,meteohub,2013-03-02 02:04:00,
2013-03-01 20:10:00,46.8,31.8,30.22,NNW,339,0.0,8.0,56,0.00,,,0.00,meteohub,2013-03-02 02:10:00,
2013-03-01 20:15:00,46.6,32.2,30.22,NNW,337,1.0,8.0,57,0.00,,,0.00,meteohub,2013-03-02 02:15:00,
2013-03-01 20:20:00,46.4,32.0,30.22,NW,317,3.0,7.0,57,0.00,,,0.00,meteohub,2013-03-02 02:20:00,
2013-03-01 20:25:00,46.2,31.8,30.22,NNW,331,4.0,7.0,57,0.00,,,0.00,meteohub,2013-03-02 02:25:00,
2013-03-01 20:30:00,46.2,32.2,30.22,NW,324,4.0,7.0,58,0.00,,,0.00,meteohub,2013-03-02 02:30:00,
2013-03-01 20:36:00,46.2,32.2,30.22,NNW,340,0.0,6.0,58,0.00,,,0.00,meteohub,2013-03-02 02:36:00,
2013-03-01 20:41:00,46.0,32.0,30.22,NNW,346,5.0,6.0,58,0.00,,,0.00,meteohub,2013-03-02 02:41:00,
2013-03-01 20:46:00,46.2,31.8,30.22,NNW,332,5.0,11.0,57,0.00,,,0.00,meteohub,2013-03-02 02:46:00,
2013-03-01 20:51:00,46.6,32.2,30.22,NNW,334,5.0,11.0,57,0.00,,,0.00,meteohub,2013-03-02 02:51:00,
2013-03-01 20:56:00,46.4,32.0,30.23,NNW,338,3.0,11.0,57,0.00,,,0.00,meteohub,2013-03-02 02:56:00,
2013-03-01 21:02:00,46.2,31.8,30.23,NNW,348,2.0,14.0,57,0.00,,,0.00,meteohub,2013-03-02 03:02:00,
2013-03-01 21:07:00,45.9,31.5,30.23,NNE,17,4.0,12.0,57,0.00,,,0.00,meteohub,2013-03-02 03:07:00,
2013-03-01 21:12:00,45.9,31.5,30.23,NE,34,4.0,12.0,57,0.00,,,0.00,meteohub,2013-03-02 03:12:00,
2013-03-01 21:17:00,45.7,31.3,30.23,North,5,4.0,11.0,57,0.00,,,0.00,meteohub,2013-03-02 03:17:00,
2013-03-01 21:22:00,45.3,31.5,30.23,NNW,344,2.0,10.0,58,0.00,,,0.00,meteohub,2013-03-02 03:22:00,
2013-03-01 21:27:00,45.1,31.3,30.24,NNE,24,6.0,10.0,58,0.00,,,0.00,meteohub,2013-03-02 03:27:00,
2013-03-01 21:32:00,45.0,31.1,30.24,North,355,2.0,9.0,58,0.00,,,0.00,meteohub,2013-03-02 03:32:00,
2013-03-01 21:37:00,44.8,30.9,30.24,NW,307,5.0,9.0,58,0.00,,,0.00,meteohub,2013-03-02 03:37:00,
2013-03-01 21:42:00,44.8,30.9,30.24,North,351,1.0,12.0,58,0.00,,,0.00,meteohub,2013-03-02 03:42:00,
2013-03-01 21:47:00,44.6,30.7,30.24,North,349,2.0,12.0,58,0.00,,,0.00,meteohub,2013-03-02 03:47:00,
2013-03-01 21:52:00,44.4,30.6,30.25,NW,308,4.0,12.0,58,0.00,,,0.00,meteohub,2013-03-02 03:52:00,
2013-03-01 21:57:00,44.2,30.7,30.25,NW,319,3.0,9.0,59,0.00,,,0.00,meteohub,2013-03-02 03:57:00,
2013-03-01 22:02:00,44.1,30.7,30.25,North,5,3.0,9.0,59,0.00,,,0.00,meteohub,2013-03-02 04:02:00,
2013-03-01 22:07:00,43.9,30.6,30.25,NNW,337,3.0,9.0,59,0.00,,,0.00,meteohub,2013-03-02 04:07:00,
2013-03-01 22:12:00,43.7,30.7,30.26,North,355,1.0,8.0,60,0.00,,,0.00,meteohub,2013-03-02 04:12:00,
2013-03-01 22:17:00,43.5,30.6,30.26,North,5,2.0,8.0,60,0.00,,,0.00,meteohub,2013-03-02 04:17:00,
2013-03-01 22:22:00,43.3,30.7,30.26,NNE,13,2.0,7.0,61,0.00,,,0.00,meteohub,2013-03-02 04:22:00,
2013-03-01 22:27:00,43.0,30.4,30.26,NE,35,3.0,7.0,61,0.00,,,0.00,meteohub,2013-03-02 04:27:00,
2013-03-01 22:32:00,42.6,30.2,30.26,NW,307,2.0,6.0,61,0.00,,,0.00,meteohub,2013-03-02 04:32:00,
2013-03-01 22:37:00,42.4,30.0,30.27,North,5,3.0,7.0,61,0.00,,,0.00,meteohub,2013-03-02 04:37:00,
2013-03-01 22:43:00,42.3,29.8,30.27,North,5,4.0,7.0,61,0.00,,,0.00,meteohub,2013-03-02 04:43:00,
2013-03-01 22:48:00,42.1,30.0,30.27,NNE,14,2.0,7.0,62,0.00,,,0.00,meteohub,2013-03-02 04:48:00,
2013-03-01 22:53:00,41.9,29.8,30.27,North,355,0.0,7.0,62,0.00,,,0.00,meteohub,2013-03-02 04:53:00,
2013-03-01 22:58:00,41.7,29.7,30.27,NNW,344,4.0,10.0,62,0.00,,,0.00,meteohub,2013-03-02 04:58:00,
2013-03-01 23:00:00,41.7,29.7,30.27,North,10,2.0,10.0,62,0.00,,,0.00,meteohub,2013-03-02 05:00:00,
2013-03-01 23:01:00,41.5,29.5,30.27,NNE,18,1.0,10.0,62,0.00,,,0.00,meteohub,2013-03-02 05:01:00,
2013-03-01 23:02:00,41.5,29.5,30.27,NNE,18,1.0,10.0,62,0.00,,,0.00,meteohub,2013-03-02 05:02:00,
2013-03-01 23:08:00,41.5,29.5,30.27,NNE,12,4.0,8.0,62,0.00,,,0.00,meteohub,2013-03-02 05:08:00,
2013-03-01 23:13:00,41.4,29.7,30.27,NNW,328,3.0,9.0,63,0.00,,,0.00,meteohub,2013-03-02 05:13:00,
2013-03-01 23:18:00,41.2,29.5,30.27,NNW,342,2.0,9.0,63,0.00,,,0.00,meteohub,2013-03-02 05:18:00,
2013-03-01 23:23:00,40.8,29.7,30.27,North,0,2.0,9.0,64,0.00,,,0.00,meteohub,2013-03-02 05:23:00,
2013-03-01 23:28:00,40.6,29.5,30.27,North,9,2.0,9.0,64,0.00,,,0.00,meteohub,2013-03-02 05:28:00,
2013-03-01 23:34:00,40.5,29.7,30.28,NE,39,2.0,9.0,65,0.00,,,0.00,meteohub,2013-03-02 05:34:00,
2013-03-01 23:39:00,40.3,29.5,30.27,NNE,12,3.0,9.0,65,0.00,,,0.00,meteohub,2013-03-02 05:39:00,
2013-03-01 23:44:00,40.1,29.3,30.27,NNW,342,3.0,9.0,65,0.00,,,0.00,meteohub,2013-03-02 05:44:00,
2013-03-01 23:49:00,39.9,29.1,30.28,North,0,1.0,5.0,65,0.00,,,0.00,meteohub,2013-03-02 05:49:00,
2013-03-01 23:54:00,39.7,29.3,30.28,NNW,336,2.0,5.0,66,0.00,,,0.00,meteohub,2013-03-02 05:54:00,